sat.trackr.live / text

‹ back to catalog

KUIPER-00174

NORAD 65787 · 2025-217AB

PAYLOAD ACTIVE UNKNOWN

§ Identity

Operator
Country
US
Launch date
2025-09-25
Launch site
AFETR
Launch vehicle
Mass (kg)
RCS (m²)

External: N2YO · Heavens-Above · Gunter

§ Orbital elements

Epoch: 2026-09-20T15:47:38.760864Z

Period
97.30 min
Inclination
51.9011°
Eccentricity
0.0000272
Mean motion
14.79928170 rev/d
Perigee alt
629.4 km
Apogee alt
629.7 km
Semi-major
7,007.7 km
B*
-2.3555e-5
RAAN
246.0307°
Arg perigee
67.6889°
Mean anomaly
292.4102°
Rev number
5,395

§ Raw data

KUIPER-001741 65787U 25217AB  26263.65808751 -.00000401  00000+0 -23555-4 0  99992 65787  51.9011 246.0307 0000272  67.6889 292.4102 14.79928170 53959

JSON: /api/v1/satellites/65787 · /tle

For live sub-satellite position, see the globe view (requires WebGL).

§ Visibility from observer

Set your observer location to see the next 7 days of passes ≥ 10°. The values pass through the URL so the page stays shareable.

No JS? Fill the form by hand. The geolocation button needs JavaScript.